• In Uzbekistan
  • List of Countries
  • For 7 days
  • Water Temperature
  • Weather Map
  • Weather Widgets
  • user-avatar
    Login

    Hourly Weather Świebodzin

    Today, 2 June, Tuesday

    Time Temperature Precipitation Wind Pressure Humidity
    00:00 +12°C° 0 mm 2 mps 759 mmHg 76%
    01:00 +10°C° 0 mm 2 mps 758 mmHg 79%
    02:00 +10°C° 0 mm 2 mps 758 mmHg 80%
    03:00 +9°C° 0 mm 2 mps 758 mmHg 81%
    04:00 +9°C° 0 mm 2 mps 758 mmHg 83%
    05:00 +10°C° 0 mm 2 mps 758 mmHg 76%
    06:00 +12°C° 0 mm 3 mps 758 mmHg 70%
    07:00 +14°C° 0 mm 3 mps 758 mmHg 64%
    08:00 +16°C° 0 mm 3 mps 757 mmHg 60%
    09:00 +17°C° 0 mm 3 mps 757 mmHg 56%
    10:00 +19°C° 0 mm 3 mps 757 mmHg 52%
    11:00 +20°C° 0 mm 3 mps 756 mmHg 51%
    12:00 +21°C° 0 mm 4 mps 756 mmHg 49%
    13:00 +22°C° 0 mm 4 mps 756 mmHg 47%
    14:00 +22°C° 0.4 mm 4 mps 755 mmHg 52%
    15:00 +21°C° 0.4 mm 4 mps 754 mmHg 57%
    16:00 +21°C° 0.4 mm 4 mps 754 mmHg 62%
    17:00 +20°C° 0.5 mm 3 mps 753 mmHg 66%
    18:00 +19°C° 0.5 mm 3 mps 753 mmHg 71%
    19:00 +19°C° 0.5 mm 2 mps 752 mmHg 76%
    20:00 +17°C° 0 mm 2 mps 752 mmHg 79%
    21:00 +16°C° 0 mm 2 mps 752 mmHg 83%
    22:00 +15°C° 0 mm 2 mps 752 mmHg 86%
    23:00 +14°C° 0 mm 2 mps 752 mmHg 88%

    Tomorrow, 3 June, Wednesday

    Time Temperature Precipitation Wind Pressure Humidity
    00:00 +13°C° 0 mm 2 mps 751 mmHg 91%
    01:00 +12°C° 0 mm 2 mps 751 mmHg 93%
    02:00 +11°C° 0 mm 1 mps 751 mmHg 93%
    03:00 +11°C° 0 mm 1 mps 750 mmHg 92%
    04:00 +10°C° 0 mm 1 mps 750 mmHg 92%
    05:00 +11°C° 0.1 mm 1 mps 750 mmHg 87%
    06:00 +12°C° 0.1 mm 1 mps 750 mmHg 83%
    07:00 +14°C° 0.1 mm 1 mps 749 mmHg 78%
    08:00 +15°C° 0 mm 1 mps 749 mmHg 70%
    09:00 +18°C° 0 mm 1 mps 749 mmHg 62%
    10:00 +19°C° 0 mm 2 mps 749 mmHg 54%
    11:00 +20°C° 0 mm 2 mps 748 mmHg 49%
    12:00 +21°C° 0 mm 2 mps 748 mmHg 43%
    13:00 +23°C° 0 mm 2 mps 748 mmHg 38%
    14:00 +23°C° 0 mm 2 mps 747 mmHg 38%
    15:00 +21°C° 0 mm 3 mps 747 mmHg 38%
    16:00 +21°C° 0 mm 3 mps 746 mmHg 38%
    17:00 +20°C° 0 mm 3 mps 746 mmHg 44%
    18:00 +19°C° 0 mm 3 mps 746 mmHg 51%
    19:00 +18°C° 0 mm 2 mps 746 mmHg 57%
    20:00 +16°C° 0 mm 2 mps 746 mmHg 62%
    21:00 +15°C° 0 mm 2 mps 746 mmHg 67%
    22:00 +13°C° 0 mm 2 mps 746 mmHg 72%
    23:00 +13°C° 0 mm 2 mps 746 mmHg 73%

    Day after tomorrow, 4 June, Thursday

    Time Temperature Precipitation Wind Pressure Humidity
    00:00 +12°C° 0 mm 2 mps 745 mmHg 74%
    01:00 +10°C° 0 mm 2 mps 745 mmHg 75%
    02:00 +10°C° 0 mm 2 mps 745 mmHg 77%
    03:00 +9°C° 0 mm 2 mps 744 mmHg 79%
    04:00 +9°C° 0 mm 3 mps 744 mmHg 81%
    05:00 +11°C° 0 mm 3 mps 744 mmHg 74%
    06:00 +12°C° 0 mm 3 mps 743 mmHg 68%
    07:00 +14°C° 0 mm 4 mps 743 mmHg 61%
    08:00 +17°C° 0 mm 4 mps 743 mmHg 55%
    09:00 +17°C° 0 mm 5 mps 743 mmHg 49%
    10:00 +20°C° 0 mm 5 mps 742 mmHg 42%
    11:00 +21°C° 0 mm 5 mps 742 mmHg 43%
    12:00 +21°C° 0 mm 5 mps 741 mmHg 43%
    13:00 +22°C° 0 mm 5 mps 741 mmHg 44%
    14:00 +21°C° 0.2 mm 5 mps 740 mmHg 52%
    15:00 +20°C° 0.2 mm 5 mps 740 mmHg 59%
    16:00 +20°C° 0.2 mm 4 mps 739 mmHg 67%
    17:00 +19°C° 0.1 mm 4 mps 739 mmHg 70%
    18:00 +19°C° 0.1 mm 4 mps 739 mmHg 73%
    19:00 +18°C° 0.1 mm 3 mps 738 mmHg 77%
    20:00 +17°C° 0 mm 3 mps 738 mmHg 79%
    21:00 +17°C° 0 mm 3 mps 738 mmHg 81%
    22:00 +16°C° 0 mm 3 mps 738 mmHg 82%
    23:00 +16°C° 0 mm 3 mps 737 mmHg 83%

    5 June, Friday

    Time Temperature Precipitation Wind Pressure Humidity
    00:00 +16°C° 0 mm 2 mps 737 mmHg 83%
    01:00 +15°C° 0 mm 2 mps 737 mmHg 83%
    02:00 +15°C° 0 mm 2 mps 737 mmHg 86%
    03:00 +15°C° 0 mm 2 mps 736 mmHg 88%
    04:00 +14°C° 0 mm 2 mps 736 mmHg 90%
    05:00 +15°C° 0.7 mm 2 mps 736 mmHg 91%
    06:00 +15°C° 0.7 mm 2 mps 736 mmHg 91%
    07:00 +15°C° 0.7 mm 2 mps 737 mmHg 91%
    08:00 +13°C° 1.2 mm 3 mps 737 mmHg 92%
    09:00 +13°C° 1.2 mm 4 mps 737 mmHg 93%
    10:00 +12°C° 1.2 mm 5 mps 738 mmHg 94%
    11:00 +12°C° 0.2 mm 5 mps 738 mmHg 92%
    12:00 +11°C° 0.2 mm 6 mps 739 mmHg 90%
    13:00 +10°C° 0.2 mm 6 mps 739 mmHg 88%
    14:00 +12°C° 0.1 mm 5 mps 740 mmHg 86%
    15:00 +12°C° 0.1 mm 4 mps 740 mmHg 85%
    16:00 +12°C° 0.1 mm 3 mps 740 mmHg 83%
    17:00 +13°C° 0 mm 3 mps 741 mmHg 80%
    18:00 +14°C° 0 mm 2 mps 741 mmHg 77%
    19:00 +14°C° 0 mm 2 mps 742 mmHg 74%
    20:00 +13°C° 0 mm 2 mps 742 mmHg 75%
    21:00 +12°C° 0 mm 2 mps 742 mmHg 76%
    22:00 +10°C° 0 mm 2 mps 743 mmHg 78%
    23:00 +10°C° 0 mm 2 mps 743 mmHg 79%

    6 June, Saturday

    Time Temperature Precipitation Wind Pressure Humidity
    00:00 +10°C° 0 mm 2 mps 743 mmHg 81%
    01:00 +9°C° 0 mm 2 mps 743 mmHg 83%
    02:00 +9°C° 0 mm 2 mps 744 mmHg 83%
    03:00 +9°C° 0 mm 2 mps 744 mmHg 84%
    04:00 +9°C° 0 mm 2 mps 745 mmHg 85%
    05:00 +10°C° 0 mm 2 mps 745 mmHg 79%
    06:00 +11°C° 0 mm 3 mps 745 mmHg 73%
    07:00 +12°C° 0 mm 3 mps 746 mmHg 68%
    08:00 +14°C° 0 mm 4 mps 746 mmHg 61%
    09:00 +15°C° 0 mm 4 mps 746 mmHg 55%
    10:00 +16°C° 0 mm 5 mps 746 mmHg 48%
    11:00 +17°C° 0 mm 5 mps 746 mmHg 46%
    12:00 +18°C° 0 mm 4 mps 746 mmHg 45%
    13:00 +19°C° 0 mm 4 mps 746 mmHg 43%
    14:00 +19°C° 0 mm 4 mps 746 mmHg 43%
    15:00 +19°C° 0 mm 4 mps 746 mmHg 44%
    16:00 +19°C° 0 mm 4 mps 746 mmHg 44%
    17:00 +19°C° 0 mm 3 mps 746 mmHg 49%
    18:00 +18°C° 0 mm 3 mps 746 mmHg 55%
    19:00 +17°C° 0 mm 2 mps 746 mmHg 61%
    20:00 +15°C° 0 mm 2 mps 746 mmHg 66%
    21:00 +14°C° 0 mm 2 mps 747 mmHg 70%
    22:00 +13°C° 0 mm 2 mps 747 mmHg 74%
    23:00 +11°C° 0 mm 3 mps 747 mmHg 77%

    7 June, Sunday

    Time Temperature Precipitation Wind Pressure Humidity
    00:00 +11°C° 0 mm 3 mps 747 mmHg 80%
    01:00 +11°C° 0 mm 3 mps 747 mmHg 82%
    02:00 +10°C° 0 mm 3 mps 747 mmHg 85%
    03:00 +10°C° 0 mm 3 mps 747 mmHg 87%
    04:00 +10°C° 0 mm 3 mps 747 mmHg 89%
    05:00 +12°C° 0 mm 3 mps 747 mmHg 84%
    06:00 +13°C° 0 mm 3 mps 747 mmHg 78%
    07:00 +16°C° 0 mm 3 mps 747 mmHg 72%
    08:00 +17°C° 0 mm 3 mps 747 mmHg 66%
    09:00 +19°C° 0 mm 3 mps 747 mmHg 61%
    10:00 +20°C° 0 mm 4 mps 748 mmHg 55%
    11:00 +20°C° 0.1 mm 4 mps 748 mmHg 55%
    12:00 +21°C° 0.1 mm 4 mps 748 mmHg 55%
    13:00 +21°C° 0.1 mm 4 mps 748 mmHg 56%
    14:00 +20°C° 0.2 mm 3 mps 748 mmHg 62%
    15:00 +19°C° 0.2 mm 3 mps 748 mmHg 67%
    16:00 +18°C° 0.2 mm 3 mps 748 mmHg 73%
    17:00 +17°C° 0.1 mm 2 mps 748 mmHg 75%
    18:00 +16°C° 0.1 mm 2 mps 749 mmHg 76%
    19:00 +15°C° 0.1 mm 2 mps 749 mmHg 77%
    20:00 +15°C° 0.1 mm 2 mps 749 mmHg 80%
    21:00 +14°C° 0.1 mm 2 mps 750 mmHg 83%
    22:00 +13°C° 0.1 mm 2 mps 750 mmHg 85%
    23:00 +13°C° 0 mm 2 mps 751 mmHg 88%
    Show more